Regional Weather Roundup
Issued by NWS

Current Version | Previous Version | Text Only | Print | Product List | Glossary Off
Versions: 1 2 3 4 5 6 7 8 9 10 11 12 13 14 15 16 17 18 19 20 21 22 23 24 25 26 27 28 29 30 31 32 33 34 35 36 37 38 39 40 41 42 43 44 45 46 47 48 49 50

000
ASUS43 KLMK 270610
RWRKY
KENTUCKY REGIONAL WEATHER ROUNDUP
NATIONAL WEATHER SERVICE LOUISVILLE KY
200 AM EDT WED JUL 27 2016

NOTE "FAIR" INDICATES FEW OR NO CLOUDS BELOW 12,000 FEET
WITH NO SIGNIFICANT WEATHER AND/OR OBSTRUCTIONS TO VISIBILITY.

KYZ001>023-026-027-061>063-070>075-270700-
WESTERN AND SOUTH CENTRAL KENTUCKY

CITY           SKY/WX    TMP DP  RH WIND       PRES   REMARKS
PADUCAH        PTCLDY    75  73  93 CALM      29.97F
HENDERSON      CLEAR     75  72  88 CALM      29.96F
OWENSBORO      CLOUDY    78  78 100 CALM      29.98F
HOPKINSVILLE   CLEAR     78  75  92 E5        29.97F
BOWLING GREEN  PTCLDY    81  76  84 CALM      29.98F
GLASGOW        CLEAR     77  77  98 CALM      29.99S
$$

KYZ024-025-028>034-038-045-046-053-270700-
NORTH CENTRAL KENTUCKY

CITY           SKY/WX    TMP DP  RH WIND       PRES   REMARKS
LOUISVILLE/SDF MOCLDY    79  72  79 CALM      29.98F
LOUISVILLE/LOU PTCLDY    78  71  79 CALM      29.99F
FORT KNOX      CLEAR     74  72  96 CALM      29.98F
$$

KYZ035>037-039>044-047>052-055>060-089>105-270700-
NORTHEAST KENTUCKY

CITY           SKY/WX    TMP DP  RH WIND       PRES   REMARKS
LEXINGTON      CLEAR     74  71  91 CALM      30.01F
COVINGTON      CLOUDY    75  74  96 CALM      30.01F
FRANKFORT      CLEAR     75  72  90 CALM      29.99F
$$

KYZ054-064>069-076>088-106>120-270700-
SOUTHEAST KENTUCKY

CITY           SKY/WX    TMP DP  RH WIND       PRES   REMARKS
JACKSON        CLEAR     76  71  85 SE3       30.03F
LONDON         CLEAR     75  71  87 CALM      30.02F
SOMERSET       CLEAR     73  73 100 CALM      30.01F
MIDDLESBORO    CLEAR     73  72  95 CALM      30.03F
MONTICELLO     CLEAR    N/A N/A N/A W7        30.02F
$$




USA.gov is the U.S. government's official web portal to all federal, state and local government web resources and services.